385  
ASUS45 KPSR 151610  
RWRAZ  
 
ARIZONA HOURLY REGIONAL WEATHER ROUNDUP  
NATIONAL WEATHER SERVICE PHOENIX AZ  
900 AM MST SUN SEP 15 2019  
 
NOTE: FAIR INDICATES FEW OR NO CLOUDS BELOW 12,000 FEET WITH NO  
SIGNIFICANT WEATHER AND/OR S TO VISIBILITY
.  
 
AZZ001>003-036-151700-  
NORTHWEST ARIZONA  
 
CITY SKY/WX TMP DP RH WIND PRES REMARKS
 
BULLHEAD CITY MOSUNNY 90 54 29 S7 29.90R  
KINGMAN SUNNY 81 49 32 NW3 30.08R  

 
 
AZZ004>008-015-016-018-151700-  
NORTH CENTRAL ARIZONA  
 
CITY SKY/WX TMP DP RH WIND PRES REMARKS
 
GRAND CANYON MOSUNNY 69 45 41 CALM 30.31R  
WILLIAMS MOSUNNY 70 45 40 VRB5 30.31R  
PRESCOTT MOSUNNY 69 54 58 CALM 30.20R  
FLAGSTAFF SUNNY 66 43 43 NE9 30.33R  
PAYSON PTSUNNY 66 50 55 E5 30.23  
PAGE SUNNY 77 46 33 VRB3 30.15R  

 
 
AZZ009>014-017-151700-  
NORTHEAST ARIZONA  
 
CITY SKY/WX TMP DP RH WIND PRES REMARKS
 
WINSLOW PTSUNNY 69 51 52 E13 30.22R  
SAINT JOHNS LGT RAIN 61 56 83 E8 30.25R  
WINDOW ROCK LGT RAIN 57 51 80 NE7 30.36F  
SHOW LOW DRIZZLE 59 54 82 CALM 30.28R  

 
 
AZZ540-542>544-546-548-151700-  
GREATER PHOENIX AREA  
 
CITY SKY/WX TMP DP RH WIND PRES REMARKS
 
PHOENIX PTSUNNY 84 60 44 S7 29.95R  
BUCKEYE SUNNY 86 59 39 SE10 29.96  
GLENDALE MOSUNNY 84 61 45 NE5 29.97R  
LUKE AFB MOSUNNY 85 60 42 NE6 29.94R  
DEER VALLEY MOSUNNY 84 59 42 SE8 29.98R  
SCOTTSDALE MOSUNNY 85 58 39 SE7 29.99R  
MESA-FALCON PTSUNNY 86 59 39 CALM 29.97R  
MESA-GATEWAY MOSUNNY 84 59 42 E10 29.88F  
CHANDLER PTSUNNY 84 59 42 E6 29.97R  

 
 
AZZ539-553-151700-  
SOUTHWEST MARICOPA COUNTY AND PINAL COUNTY  
 
CITY SKY/WX TMP DP RH WIND PRES REMARKS
 
CASA GRANDE MOSUNNY 83 62 49 E14 29.98R  
GILA BEND FAIR 88 57 34 E9 29.92R  

 
 
AZZ503-504-507>509-151700-  
SOUTHEAST ARIZONA  
 
CITY SKY/WX TMP DP RH WIND PRES REMARKS
 
TUCSON PTSUNNY 71 65 81 SE9 30.07R  
DAVIS-MONTHAN MOSUNNY 70 66 85 E10 30.05S  
RYAN FIELD SUNNY 72 66 83 E13 30.06R  
NOGALES CLOUDY 72 65 78 CALM 30.12R  
SIERRA VISTA CLOUDY 66 61 82 CALM 30.18  
DOUGLAS MOSUNNY 69 61 75 SW5 30.15R  
SAFFORD CLOUDY 67 64 90 NW5 30.11S  

 
 
AZZ532-151700-  
SOUTHWEST ARIZONA  
 
CITY SKY/WX TMP DP RH WIND PRES REMARKS
 
YUMA SUNNY 89 73 59 SE13 29.86R  

 
 
CAZ041-043-047-048-061-525>527-560>570-151700-  
SOUTHERN CALIFORNIA  
 
CITY SKY/WX TMP DP RH WIND PRES REMARKS
 
DOWNTOWN L.A. MOSUNNY 70 64 81 CALM 29.90 HAZE  
L.A. AIRPORT CLOUDY 71 66 84 E3 29.91R HAZE  
SAN DIEGO CLOUDY 75 63 66 NW5 29.92R  
BURBANK MOSUNNY 73 55 53 S5 29.91R  
ONTARIO CLOUDY 77 50 38 CALM 29.93R  
RIVERSIDE CLOUDY 79 51 37 CALM 29.92R  
PALM SPRINGS MOSUNNY 91 42 18 CALM 29.89R  
EL CENTRO NAS SUNNY 89 72 56 S15 29.86  
IMPERIAL SUNNY 89 75 63 S12 29.84R  
BLYTHE SUNNY 91 57 31 SE8 29.88R  
NEEDLES SUNNY 92 52 25 VRB5 29.92R  

 
 
NVZ020-UTZ003-151700-  
SOUTHERN NEVADA-UTAH  
 
CITY SKY/WX TMP DP RH WIND PRES REMARKS
 
LAS VEGAS MOSUNNY 84 40 21 E3 29.95R  
SALT LAKE CITY MOSUNNY 75 40 28 SE14 30.03S  

 
 
NMZ009-TXZ055-151700-  
NEW MEXICO-WEST TEXAS  
 
CITY SKY/WX TMP DP RH WIND PRES REMARKS
 
ALBUQUERQUE CLOUDY 62 58 86 N7 30.32R  
EL PASO CLOUDY 71 64 78 N7 30.18R  

 
 
   
.......................KEY.....................
 
 
SKY/WX - SKY CONDITION/WEATHER  
TMP - TEMPERATURE IN FAHRENHEIT  
DP - DEW POINT IN FAHRENHEIT  
RH - RELATIVE HUMIDITY IN PERCENT  
WIND - DIRECTION AND SPEED IN MILES PER HOUR (MPH)  
VRB - VARIABLE WIND DIRECTION  
PRES - MEAN SEA LEVEL PRESSURE IN INCHES OF MERCURY  
F - FALLING PRESSURE R - RISING PRESSURE  
S - STEADY PRESSURE  
VSB - VISIBILITY IN MILES  
HX - HEAT INDEX IN FAHRENHEIT  
WCI - WIND CHILL INDEX IN FAHRENHEIT  
TC - TEMPERATURE IN CELSIUS WHICH IS ALSO KNOWN AS  
TEMPERATURE IN CENTIGRADE  
AFB - AIR FORCE BASE  
LUKE AFB IS LUKE AIR FORCE BASE  
DAVIS-MONTHAN IS DAVIS-MONTHAN AIR FORCE BASE  
NAS - NAVAL AIR STATION  
EL CENTRO NAS IS EL CENTRO NAVAL AIR STATION  
N/A - NOT AVAILABLE  
 
 
 
CLICK HERE TO GO TO PREVIOUS BULLETINS.

The Nexlab AZ Page Main Text Page